Location: Powder Track
(41.8531°N, 72.3584°W)
Time: 00:20:55
(UTC+00:00)

Vanguard 1 Rocket - Pass Details

Date: 14 August 2021
Orbit: 650 x 4226 km, 34.3° (Epoch: 19 September)

Event Time Altitude Azimuth Distance (km) Brightness Sun altitude
Rises 07:44:05 0° 184° (S) 7,219 - -21.6°
Exits shadow 07:44:51 - 182° (S) 7,150 11.5 -21.5°
Reaches altitude 10° 07:50:47 10° 169° (S) 6,713 11.5 -20.7°
Maximum altitude 08:05:55 21° 129° (SE) 6,408 11.8 -18.6°
Drops below altitude 10° 08:21:57 10° 90° (E) 7,270 12.7 -16.3°
Sets 08:29:25 0° 78° (ENE) 7,978 13.5 -15.2°
